ACA892 CYUL-LIRF

Flight info

Callsign ACA892
Flight time 7h 39m
Altitude 31000
Route DCT SUXET DCT NOVUN DCT ESRAM DCT RABIK Q951 ANTOV DCT MIILS N371B JOOPY/M085F330 DCT 49N050W 51N040W 53N030W 54N020W DCT DOGAL DCT BEXET/N0486F330 DCT KER DCT LEDGO/N0487F350 DCT DOLUR DCT TERKU DCT KORER DCT LEMKA DCT BEBIX DCT LERGA DCT TOZOT DCT OTROT DCT RETNO DCT KOLON DCT RAPUR DCT RATAP/N0506F290 DCT BTA/N0497F280 DCT MOULE DCT XOPTA DCT ELB DCT ELKAP ELKAP3A
Aircraft B77W/H-VGDW/C

Departure

Time 2026-05-04 11:52
Airport Montreal / Pierre Elliott Trudeau International Airport (CYUL)

Arrival

Time 2026-05-04 19:32
Airport Rome–Fiumicino Leonardo da Vinci International Airport (LIRF)
Time Latitude Longitude Altitude Speed Heading
2026-05-04 10:39 45.45973 -73.75370 109 ft 0 kts 208°
2026-05-04 11:31 45.45977 -73.75367 109 ft 3 kts 208°
2026-05-04 11:33 45.46017 -73.75259 109 ft 0 kts 298°
2026-05-04 11:38 45.46019 -73.75264 108 ft 2 kts 297°
2026-05-04 11:39 45.46032 -73.75302 109 ft 5 kts 296°
2026-05-04 11:39 45.46053 -73.75340 108 ft 5 kts 318°
2026-05-04 11:40 45.46152 -73.74994 109 ft 9 kts 87°
2026-05-04 11:41 45.46155 -73.74899 109 ft 11 kts 88°
2026-05-04 11:41 45.46160 -73.74764 108 ft 15 kts 86°
2026-05-04 11:41 45.46162 -73.74667 108 ft 8 kts 91°
2026-05-04 11:41 45.46149 -73.74593 108 ft 8 kts 112°
2026-05-04 11:42 45.46133 -73.74519 108 ft 8 kts 99°
2026-05-04 11:42 45.46131 -73.74418 108 ft 11 kts 89°
2026-05-04 11:42 45.46133 -73.74305 107 ft 11 kts 87°
2026-05-04 11:42 45.46137 -73.74192 108 ft 11 kts 87°
2026-05-04 11:43 45.46147 -73.74083 109 ft 10 kts 71°
2026-05-04 11:43 45.46186 -73.74000 110 ft 10 kts 46°
2026-05-04 11:43 45.46237 -73.73931 110 ft 10 kts 42°
2026-05-04 11:43 45.46291 -73.73860 110 ft 12 kts 43°
2026-05-04 11:44 45.46361 -73.73767 110 ft 15 kts 43°
2026-05-04 11:44 45.46435 -73.73671 109 ft 14 kts 42°
2026-05-04 11:44 45.46509 -73.73574 112 ft 14 kts 43°
2026-05-04 11:44 45.46582 -73.73478 114 ft 14 kts 42°
2026-05-04 11:45 45.46656 -73.73381 114 ft 14 kts 43°
2026-05-04 11:45 45.46729 -73.73285 114 ft 14 kts 43°
2026-05-04 11:45 45.46803 -73.73189 114 ft 14 kts 43°
2026-05-04 11:45 45.46876 -73.73092 116 ft 14 kts 43°
2026-05-04 11:46 45.46949 -73.72997 116 ft 14 kts 42°
2026-05-04 11:46 45.47022 -73.72901 118 ft 14 kts 43°
2026-05-04 11:46 45.47095 -73.72804 120 ft 14 kts 42°
2026-05-04 11:46 45.47168 -73.72709 120 ft 14 kts 42°
2026-05-04 11:47 45.47241 -73.72613 119 ft 14 kts 43°
2026-05-04 11:47 45.47314 -73.72517 122 ft 14 kts 43°
2026-05-04 11:47 45.47387 -73.72421 121 ft 14 kts 41°
2026-05-04 11:47 45.47460 -73.72326 119 ft 14 kts 43°
2026-05-04 11:48 45.47533 -73.72230 121 ft 14 kts 43°
2026-05-04 11:48 45.47607 -73.72135 121 ft 14 kts 42°
2026-05-04 11:48 45.47680 -73.72039 121 ft 14 kts 43°
2026-05-04 11:48 45.47753 -73.71943 122 ft 14 kts 42°
2026-05-04 11:49 45.47798 -73.71872 124 ft 7 kts 65°
2026-05-04 11:49 45.47797 -73.71804 122 ft 7 kts 105°
2026-05-04 11:49 45.47784 -73.71762 128 ft 7 kts 117°
2026-05-04 11:49 45.47782 -73.71759 122 ft 7 kts 118°
2026-05-04 11:50 45.47771 -73.71730 128 ft 7 kts 121°
2026-05-04 11:50 45.47765 -73.71717 126 ft 7 kts 123°
2026-05-04 11:50 45.47733 -73.71666 129 ft 7 kts 140°
2026-05-04 11:50 45.47687 -73.71654 129 ft 7 kts 192°
2026-05-04 11:51 45.47645 -73.71686 124 ft 7 kts 217°
2026-05-04 11:51 45.47638 -73.71694 130 ft 0 kts 220°
2026-05-04 11:51 45.47499 -73.71871 123 ft 67 kts 222°
2026-05-04 11:52 45.46941 -73.72602 120 ft 149 kts 222°
2026-05-04 11:52 45.45977 -73.73854 123 ft 220 kts 223°
2026-05-04 11:52 45.44833 -73.75390 1028 ft 226 kts 223°
2026-05-04 11:52 45.43707 -73.76901 2513 ft 220 kts 221°
2026-05-04 11:53 45.42599 -73.78382 3885 ft 216 kts 221°
2026-05-04 11:53 45.41548 -73.79890 5029 ft 214 kts 222°
2026-05-04 11:53 45.40418 -73.81335 5399 ft 227 kts 221°
2026-05-04 11:53 45.39189 -73.82876 5597 ft 246 kts 226°
2026-05-04 11:55 45.30506 -73.75358 9284 ft 314 kts 104°
2026-05-04 11:55 45.30016 -73.72279 9899 ft 318 kts 105°
2026-05-04 11:56 45.29525 -73.69227 10402 ft 326 kts 105°
2026-05-04 11:56 45.28993 -73.65999 10548 ft 347 kts 105°
2026-05-04 11:56 45.28419 -73.62567 10728 ft 367 kts 105°
2026-05-04 11:56 45.27806 -73.58940 10904 ft 387 kts 105°
2026-05-04 11:57 45.27157 -73.55131 11236 ft 402 kts 105°
2026-05-04 11:57 45.26493 -73.51234 11789 ft 411 kts 105°
2026-05-04 11:57 45.25811 -73.47258 12398 ft 417 kts 105°
2026-05-04 11:57 45.25115 -73.43236 13063 ft 422 kts 105°
2026-05-04 11:58 45.24414 -73.39179 13747 ft 425 kts 105°
2026-05-04 11:58 45.23703 -73.35087 14432 ft 428 kts 105°
2026-05-04 11:58 45.22994 -73.31016 15073 ft 433 kts 105°
2026-05-04 11:58 45.22270 -73.26858 15710 ft 436 kts 105°
2026-05-04 11:59 45.21534 -73.22652 16296 ft 441 kts 105°
2026-05-04 11:59 45.20891 -73.18379 16885 ft 446 kts 99°
2026-05-04 11:59 45.20565 -73.13996 17495 ft 449 kts 93°
2026-05-04 11:59 45.20578 -73.09542 18102 ft 452 kts 86°
2026-05-04 12:00 45.20782 -73.05079 18638 ft 455 kts 83°
2026-05-04 12:00 45.21323 -73.00642 19136 ft 458 kts 73°
2026-05-04 12:00 45.22285 -72.96325 19663 ft 460 kts 66°
2026-05-04 12:00 45.23635 -72.92220 20187 ft 459 kts 57°
2026-05-04 12:01 45.25271 -72.88333 20724 ft 460 kts 55°
2026-05-04 12:01 45.26902 -72.84396 21251 ft 464 kts 57°
2026-05-04 12:02 45.30072 -72.56536 23945 ft 493 kts 84°
2026-05-04 12:03 45.30335 -72.51730 24363 ft 496 kts 83°
2026-05-04 12:03 45.30628 -72.46834 24789 ft 498 kts 83°
2026-05-04 12:03 45.30921 -72.41921 25220 ft 500 kts 83°
2026-05-04 12:03 45.31206 -72.36987 25615 ft 503 kts 84°
2026-05-04 12:04 45.31482 -72.32022 25977 ft 506 kts 84°
2026-05-04 12:04 45.31751 -72.27030 26365 ft 508 kts 84°
2026-05-04 12:04 45.32018 -72.22020 26755 ft 509 kts 84°
2026-05-04 12:04 45.32282 -72.16973 27101 ft 511 kts 84°
2026-05-04 12:05 45.32541 -72.11918 27428 ft 514 kts 84°
2026-05-04 12:05 45.32803 -72.06846 27756 ft 516 kts 84°
2026-05-04 12:05 45.33065 -72.01739 28064 ft 518 kts 84°
2026-05-04 12:05 45.33327 -71.96616 28369 ft 520 kts 84°
2026-05-04 12:06 45.33586 -71.91482 28703 ft 521 kts 84°
2026-05-04 12:06 45.33851 -71.86333 28987 ft 522 kts 83°
2026-05-04 12:06 45.34269 -71.81276 29222 ft 523 kts 80°
2026-05-04 12:06 45.34821 -71.76157 29449 ft 525 kts 79°
2026-05-04 12:07 45.35420 -71.71037 29747 ft 525 kts 78°
2026-05-04 12:07 45.36021 -71.65930 30114 ft 523 kts 79°
2026-05-04 12:07 45.36605 -71.60828 30445 ft 521 kts 79°
2026-05-04 12:07 45.37169 -71.55742 31892 ft 523 kts 80°
2026-05-04 12:08 45.37725 -71.50601 31596 ft 529 kts 80°
2026-05-04 12:08 45.38275 -71.45424 31404 ft 528 kts 80°
2026-05-04 12:08 45.38818 -71.40265 31178 ft 525 kts 80°
2026-05-04 12:08 45.39356 -71.35146 31050 ft 522 kts 80°
2026-05-04 12:09 45.40430 -71.24923 30890 ft 522 kts 80°
2026-05-04 12:09 45.41485 -71.14779 30870 ft 520 kts 80°
2026-05-04 12:10 45.42864 -71.04645 30819 ft 519 kts 71°
2026-05-04 12:10 45.45464 -70.95113 30814 ft 518 kts 60°
2026-05-04 12:11 45.48973 -70.86091 30815 ft 519 kts 57°
2026-05-04 12:11 45.52519 -70.77156 30811 ft 521 kts 58°
2026-05-04 12:12 45.56059 -70.68097 30826 ft 523 kts 58°
2026-05-04 12:12 45.59574 -70.58983 30806 ft 523 kts 58°
2026-05-04 12:14 45.73427 -70.22749 30786 ft 516 kts 59°
2026-05-04 12:15 45.76846 -70.13729 30777 ft 515 kts 59°
2026-05-04 12:15 45.80262 -70.04697 30781 ft 515 kts 59°
2026-05-04 12:16 45.83668 -69.95664 30787 ft 516 kts 59°
2026-05-04 12:16 45.87071 -69.86593 30763 ft 516 kts 59°
2026-05-04 12:17 45.90484 -69.77480 30771 ft 519 kts 59°
2026-05-04 12:17 45.93877 -69.68386 30775 ft 521 kts 59°
2026-05-04 12:18 45.97290 -69.59197 30781 ft 522 kts 59°
2026-05-04 12:18 46.00709 -69.49977 30771 ft 522 kts 59°
2026-05-04 12:19 46.04117 -69.40754 30778 ft 521 kts 59°
2026-05-04 12:19 46.07505 -69.31543 30778 ft 520 kts 59°
2026-05-04 12:20 46.10883 -69.22339 30799 ft 519 kts 60°
2026-05-04 12:20 46.14224 -69.13193 30793 ft 518 kts 60°
2026-05-04 12:21 46.17585 -69.03967 30789 ft 517 kts 60°
2026-05-04 12:21 46.20359 -68.96329 30784 ft 517 kts 60°
2026-05-04 12:22 46.23688 -68.87138 30782 ft 517 kts 60°
2026-05-04 12:22 46.27012 -68.77922 30789 ft 517 kts 60°
2026-05-04 12:23 46.30332 -68.68683 30771 ft 518 kts 61°
2026-05-04 12:23 46.33644 -68.59439 30768 ft 517 kts 61°
2026-05-04 12:24 46.36952 -68.50183 30775 ft 517 kts 61°
2026-05-04 12:24 46.40242 -68.40929 30780 ft 515 kts 61°
2026-05-04 12:25 46.43507 -68.31705 30754 ft 514 kts 61°
2026-05-04 12:25 46.46766 -68.22509 30783 ft 511 kts 61°
2026-05-04 12:26 46.49979 -68.13371 30771 ft 511 kts 62°
2026-05-04 12:26 46.53199 -68.04192 30768 ft 510 kts 62°
2026-05-04 12:27 46.56410 -67.95014 30750 ft 509 kts 62°
2026-05-04 12:27 46.59604 -67.85846 30747 ft 508 kts 62°
2026-05-04 12:28 46.62796 -67.76671 30748 ft 506 kts 62°
2026-05-04 12:28 46.66028 -67.67514 30747 ft 510 kts 63°
2026-05-04 12:29 46.69075 -67.58206 30733 ft 507 kts 63°
2026-05-04 12:29 46.72193 -67.49039 30689 ft 503 kts 62°
2026-05-04 12:30 46.75360 -67.39968 30718 ft 508 kts 62°
2026-05-04 12:30 46.78610 -67.30771 30738 ft 510 kts 62°
2026-05-04 12:31 46.81749 -67.21497 30712 ft 511 kts 64°
2026-05-04 12:31 46.84866 -67.12147 30692 ft 512 kts 63°
2026-05-04 12:32 46.88761 -66.97720 30693 ft 510 kts 75°
2026-05-04 12:33 46.90544 -66.87632 30671 ft 513 kts 76°
2026-05-04 12:33 46.92178 -66.77573 30661 ft 508 kts 77°
2026-05-04 12:34 46.93859 -66.67544 30679 ft 508 kts 76°
2026-05-04 12:34 46.95659 -66.57575 30663 ft 503 kts 75°
2026-05-04 12:35 46.97444 -66.47615 30656 ft 505 kts 76°
2026-05-04 12:35 46.99204 -66.37600 30645 ft 510 kts 76°
2026-05-04 12:36 47.00832 -66.27525 30657 ft 515 kts 77°
2026-05-04 12:36 47.02496 -66.17389 30640 ft 506 kts 75°
2026-05-04 12:37 47.04345 -66.07430 30605 ft 505 kts 75°
2026-05-04 12:37 47.06048 -65.97434 30593 ft 506 kts 74°
2026-05-04 12:38 47.07768 -65.87392 30619 ft 510 kts 76°
2026-05-04 12:38 47.09294 -65.77285 30607 ft 510 kts 76°
2026-05-04 12:39 47.10957 -65.67139 30606 ft 509 kts 76°
2026-05-04 12:39 47.12588 -65.57000 30580 ft 510 kts 76°
2026-05-04 12:40 47.14393 -65.46928 30597 ft 510 kts 75°
2026-05-04 12:40 47.16142 -65.36910 30587 ft 505 kts 76°
2026-05-04 12:41 47.17679 -65.26914 30551 ft 506 kts 76°
2026-05-04 12:41 47.19235 -65.16765 30557 ft 510 kts 77°
2026-05-04 12:42 47.20814 -65.06560 30542 ft 515 kts 76°
2026-05-04 12:42 47.22467 -64.96288 30539 ft 514 kts 75°
2026-05-04 12:43 47.24087 -64.86125 30514 ft 509 kts 76°
2026-05-04 12:43 47.25680 -64.75987 30522 ft 508 kts 75°
2026-05-04 12:44 47.27251 -64.65889 30520 ft 509 kts 76°
2026-05-04 12:44 47.28830 -64.55687 30516 ft 512 kts 75°
2026-05-04 12:45 47.30407 -64.45435 30516 ft 513 kts 76°
2026-05-04 12:45 47.31977 -64.35174 30496 ft 514 kts 75°
2026-05-04 12:46 47.33540 -64.24897 30496 ft 513 kts 76°
2026-05-04 12:46 47.35091 -64.14616 30482 ft 514 kts 76°
2026-05-04 12:47 47.36636 -64.04309 30486 ft 515 kts 76°
2026-05-04 12:47 47.38164 -63.94053 30498 ft 515 kts 76°
2026-05-04 12:48 47.39693 -63.83716 30470 ft 514 kts 76°
2026-05-04 12:48 47.41210 -63.73409 30468 ft 512 kts 76°
2026-05-04 12:49 47.42709 -63.63130 30446 ft 511 kts 75°
2026-05-04 12:49 47.44192 -63.52880 30444 ft 510 kts 76°
2026-05-04 12:50 47.45672 -63.42633 30434 ft 511 kts 76°
2026-05-04 12:50 47.47139 -63.32415 30449 ft 511 kts 76°
2026-05-04 12:51 47.48600 -63.22130 30425 ft 511 kts 76°
2026-05-04 12:51 47.50051 -63.11831 30419 ft 512 kts 76°
2026-05-04 12:52 47.51499 -63.01502 30417 ft 514 kts 76°
2026-05-04 12:52 47.52947 -62.91115 30399 ft 516 kts 76°
2026-05-04 12:53 47.54380 -62.80758 30395 ft 516 kts 76°
2026-05-04 12:53 47.55811 -62.70336 30382 ft 516 kts 77°
2026-05-04 12:54 47.57230 -62.59917 30384 ft 516 kts 77°
2026-05-04 12:54 47.58639 -62.49499 30352 ft 515 kts 77°
2026-05-04 12:55 47.60041 -62.39061 30349 ft 516 kts 77°
2026-05-04 12:55 47.61426 -62.28679 30322 ft 516 kts 77°
2026-05-04 12:56 47.62807 -62.18235 30315 ft 517 kts 77°
2026-05-04 12:56 47.64183 -62.07781 30313 ft 517 kts 78°
2026-05-04 12:57 47.65552 -61.97288 30288 ft 519 kts 78°
2026-05-04 12:57 47.66895 -61.86780 30267 ft 519 kts 78°
2026-05-04 12:58 47.68154 -61.76215 30274 ft 518 kts 79°
2026-05-04 12:58 47.69456 -61.65831 30274 ft 514 kts 76°
2026-05-04 12:59 47.70907 -61.55384 30265 ft 518 kts 78°
2026-05-04 12:59 47.72230 -61.44906 30241 ft 513 kts 79°
2026-05-04 13:00 47.73468 -61.34537 30226 ft 508 kts 80°
2026-05-04 13:00 47.74663 -61.24116 30229 ft 515 kts 79°
2026-05-04 13:01 47.76051 -61.13632 30229 ft 518 kts 78°
2026-05-04 13:01 47.77421 -61.03181 30233 ft 517 kts 78°
2026-05-04 13:02 47.78813 -60.92669 30227 ft 518 kts 79°
2026-05-04 13:02 47.80010 -60.82204 30199 ft 512 kts 81°
2026-05-04 13:03 47.81036 -60.71711 30203 ft 513 kts 81°
2026-05-04 13:03 47.82237 -60.61166 30205 ft 518 kts 79°
2026-05-04 13:04 47.83562 -60.50620 30183 ft 517 kts 79°
2026-05-04 13:04 47.84830 -60.40120 30169 ft 513 kts 80°
2026-05-04 13:05 47.86044 -60.29635 30163 ft 513 kts 81°
2026-05-04 13:05 47.87219 -60.19244 30159 ft 512 kts 81°
2026-05-04 13:06 47.88397 -60.08790 30129 ft 511 kts 81°
2026-05-04 13:06 47.89570 -59.98323 30133 ft 511 kts 81°
2026-05-04 13:07 47.90732 -59.87862 30132 ft 511 kts 81°
2026-05-04 13:07 47.91884 -59.77397 30123 ft 512 kts 82°
2026-05-04 13:08 47.93028 -59.66918 30127 ft 511 kts 82°
2026-05-04 13:08 47.94153 -59.56529 30087 ft 510 kts 82°
2026-05-04 13:09 47.95271 -59.46092 30095 ft 509 kts 82°
2026-05-04 13:09 47.96380 -59.35664 30084 ft 509 kts 82°
2026-05-04 13:10 47.97479 -59.25229 30087 ft 509 kts 83°
2026-05-04 13:10 47.98569 -59.14791 30083 ft 509 kts 83°
2026-05-04 13:11 47.99652 -59.04335 30082 ft 509 kts 84°
2026-05-04 13:11 48.00542 -58.95649 30080 ft 509 kts 84°
2026-05-04 13:12 48.01606 -58.85181 30073 ft 509 kts 84°
2026-05-04 13:12 48.02654 -58.74772 30080 ft 509 kts 84°
2026-05-04 13:13 48.03699 -58.64307 30078 ft 509 kts 84°
2026-05-04 13:13 48.04734 -58.53842 30086 ft 509 kts 84°
2026-05-04 13:14 48.05761 -58.43352 30090 ft 509 kts 85°
2026-05-04 13:14 48.06779 -58.32868 30091 ft 510 kts 85°
2026-05-04 13:15 48.07785 -58.22370 30097 ft 509 kts 85°
2026-05-04 13:15 48.08782 -58.11883 30103 ft 509 kts 85°
2026-05-04 13:16 48.09768 -58.01397 30109 ft 509 kts 85°
2026-05-04 13:16 48.10746 -57.90917 30103 ft 508 kts 85°
2026-05-04 13:17 48.11708 -57.80510 30123 ft 507 kts 86°
2026-05-04 13:17 48.12661 -57.70061 30115 ft 506 kts 86°
2026-05-04 13:18 48.13603 -57.59637 30126 ft 505 kts 86°
2026-05-04 13:18 48.14537 -57.49212 30136 ft 504 kts 86°
2026-05-04 13:19 48.15458 -57.38816 30149 ft 502 kts 86°
2026-05-04 13:19 48.16360 -57.28491 30136 ft 502 kts 87°
2026-05-04 13:20 48.17258 -57.18137 30150 ft 501 kts 87°
2026-05-04 13:20 48.18143 -57.07790 30151 ft 500 kts 87°
2026-05-04 13:21 48.19020 -56.97453 30144 ft 500 kts 87°
2026-05-04 13:21 48.19886 -56.87093 30147 ft 501 kts 88°
2026-05-04 13:22 48.20743 -56.76720 30148 ft 502 kts 88°
2026-05-04 13:22 48.21598 -56.66329 30129 ft 502 kts 88°
2026-05-04 13:23 48.22437 -56.55992 30143 ft 501 kts 88°
2026-05-04 13:23 48.23269 -56.45609 30111 ft 501 kts 88°
2026-05-04 13:24 48.24092 -56.35206 30150 ft 501 kts 88°
2026-05-04 13:24 48.24908 -56.24792 30161 ft 502 kts 88°
2026-05-04 13:25 48.26110 -56.09202 30178 ft 503 kts 88°
2026-05-04 13:25 48.26902 -55.98765 30184 ft 503 kts 88°
2026-05-04 13:26 48.27688 -55.88308 30161 ft 504 kts 89°
2026-05-04 13:26 48.28462 -55.77866 30189 ft 504 kts 89°
2026-05-04 13:27 48.29229 -55.67401 30204 ft 505 kts 89°
2026-05-04 13:27 48.29987 -55.56898 30205 ft 506 kts 89°
2026-05-04 13:28 48.30732 -55.46443 30218 ft 506 kts 89°
2026-05-04 13:28 48.31473 -55.35935 30209 ft 505 kts 89°
2026-05-04 13:29 48.32202 -55.25456 30222 ft 504 kts 89°
2026-05-04 13:29 48.32919 -55.14981 30252 ft 503 kts 90°
2026-05-04 13:30 48.33627 -55.04507 30268 ft 504 kts 90°
2026-05-04 13:30 48.34325 -54.94018 30269 ft 504 kts 90°
2026-05-04 13:31 48.35016 -54.83509 30327 ft 505 kts 90°
2026-05-04 13:31 48.35695 -54.73068 30275 ft 504 kts 90°
2026-05-04 13:32 48.36365 -54.62610 30322 ft 502 kts 91°
2026-05-04 13:32 48.37021 -54.52178 30352 ft 501 kts 91°
2026-05-04 13:33 48.37669 -54.41723 30354 ft 501 kts 91°
2026-05-04 13:33 48.38307 -54.31273 30376 ft 501 kts 91°
2026-05-04 13:34 48.38937 -54.20807 30379 ft 501 kts 91°
2026-05-04 13:34 48.39558 -54.10367 30368 ft 499 kts 92°
2026-05-04 13:35 48.40461 -53.94883 30405 ft 496 kts 93°
2026-05-04 13:36 48.41050 -53.84549 30419 ft 495 kts 93°
2026-05-04 13:36 48.41628 -53.74243 30421 ft 494 kts 93°
2026-05-04 13:37 48.42194 -53.63933 30441 ft 494 kts 93°
2026-05-04 13:37 48.42755 -53.53612 30413 ft 494 kts 94°
2026-05-04 13:38 48.43308 -53.43316 30444 ft 492 kts 95°
2026-05-04 13:38 48.43848 -53.33069 30466 ft 490 kts 95°
2026-05-04 13:39 48.44373 -53.22855 30484 ft 489 kts 95°
2026-05-04 13:39 48.44888 -53.12627 30479 ft 489 kts 95°
2026-05-04 13:40 48.45396 -53.02453 30482 ft 489 kts 95°
2026-05-04 13:40 48.45897 -52.92246 30473 ft 487 kts 96°
2026-05-04 13:41 48.46389 -52.82106 30495 ft 482 kts 97°
2026-05-04 13:41 48.46862 -52.72064 30491 ft 478 kts 97°
2026-05-04 13:42 48.47549 -52.57106 30505 ft 476 kts 97°
2026-05-04 13:42 48.47992 -52.47202 30521 ft 476 kts 97°
2026-05-04 13:43 48.48430 -52.37232 30533 ft 477 kts 97°
2026-05-04 13:43 48.48861 -52.27242 30543 ft 479 kts 97°
2026-05-04 13:44 48.49289 -52.17249 30532 ft 475 kts 98°
2026-05-04 13:44 48.49707 -52.07322 30543 ft 474 kts 97°
2026-05-04 13:45 48.50843 -51.97354 30557 ft 490 kts 86°
2026-05-04 13:45 48.53131 -51.87498 30575 ft 502 kts 79°
2026-05-04 13:46 48.55718 -51.77766 30572 ft 502 kts 79°
2026-05-04 13:46 48.58292 -51.67965 30485 ft 500 kts 80°
2026-05-04 13:47 48.60817 -51.58181 30585 ft 500 kts 80°
2026-05-04 13:47 48.63334 -51.48342 30597 ft 503 kts 80°
2026-05-04 13:48 48.65852 -51.38435 30604 ft 505 kts 80°
2026-05-04 13:48 48.68372 -51.28505 30584 ft 505 kts 80°
2026-05-04 13:49 48.70887 -51.18561 30610 ft 505 kts 80°
2026-05-04 13:49 48.73372 -51.08685 30614 ft 504 kts 80°
2026-05-04 13:50 48.75860 -50.98754 30616 ft 504 kts 80°
2026-05-04 13:50 48.78335 -50.88832 30580 ft 502 kts 81°
2026-05-04 13:51 48.80793 -50.78936 30621 ft 500 kts 81°
2026-05-04 13:51 48.83234 -50.69054 30624 ft 500 kts 81°
2026-05-04 13:52 48.86889 -50.54166 30647 ft 503 kts 81°
2026-05-04 13:53 48.89332 -50.44172 30659 ft 505 kts 81°
2026-05-04 13:53 48.91757 -50.34208 30646 ft 506 kts 81°
2026-05-04 13:54 48.95407 -50.19133 30658 ft 505 kts 81°
2026-05-04 13:55 48.99020 -50.04103 30593 ft 502 kts 81°
2026-05-04 13:55 49.02668 -49.89229 30655 ft 502 kts 80°
2026-05-04 13:56 49.05187 -49.79284 30604 ft 503 kts 80°
2026-05-04 13:57 49.08948 -49.64320 30680 ft 505 kts 80°
2026-05-04 13:58 49.13911 -49.44261 30693 ft 508 kts 79°
2026-05-04 13:58 49.17642 -49.29094 30695 ft 509 kts 79°
2026-05-04 13:59 49.19717 -49.20592 30696 ft 509 kts 79°
2026-05-04 14:00 49.23408 -49.05435 30687 ft 510 kts 79°
2026-05-04 14:00 49.27103 -48.90119 30718 ft 512 kts 79°
2026-05-04 14:01 49.29562 -48.79867 30687 ft 513 kts 79°
2026-05-04 14:02 49.33259 -48.64384 30708 ft 518 kts 79°
2026-05-04 14:02 49.35724 -48.53989 30726 ft 522 kts 79°
2026-05-04 14:03 49.38214 -48.43446 30731 ft 525 kts 79°
2026-05-04 14:03 49.40693 -48.32904 30721 ft 524 kts 79°
2026-05-04 14:04 49.44357 -48.17228 30726 ft 520 kts 78°
2026-05-04 14:04 49.46786 -48.06789 30736 ft 518 kts 78°
2026-05-04 14:05 49.50383 -47.91183 30744 ft 515 kts 78°
2026-05-04 14:06 49.52750 -47.80847 30755 ft 515 kts 78°
2026-05-04 14:06 49.55133 -47.70413 30752 ft 518 kts 77°
2026-05-04 14:07 49.57520 -47.59895 30763 ft 522 kts 77°
2026-05-04 14:07 49.59912 -47.49293 30771 ft 525 kts 77°
2026-05-04 14:08 49.62310 -47.38631 30758 ft 527 kts 77°
2026-05-04 14:08 49.64715 -47.27936 30774 ft 527 kts 77°
2026-05-04 14:09 49.68267 -47.11867 30791 ft 528 kts 77°
2026-05-04 14:10 49.71823 -46.95814 30782 ft 525 kts 77°
2026-05-04 14:10 49.74137 -46.85216 30804 ft 524 kts 77°
2026-05-04 14:11 49.76470 -46.74525 30813 ft 524 kts 77°
2026-05-04 14:11 49.79951 -46.58490 30826 ft 525 kts 77°
2026-05-04 14:12 49.82261 -46.47732 30845 ft 526 kts 76°
2026-05-04 14:13 49.85710 -46.31583 30852 ft 526 kts 76°
2026-05-04 14:13 49.87993 -46.20868 30849 ft 525 kts 76°
2026-05-04 14:14 49.90264 -46.10104 30864 ft 526 kts 76°
2026-05-04 14:14 49.93664 -45.93893 30884 ft 526 kts 76°
2026-05-04 14:15 49.98156 -45.72248 30883 ft 526 kts 77°
2026-05-04 14:16 50.01482 -45.56102 30892 ft 524 kts 76°
2026-05-04 14:17 50.04792 -45.39882 30913 ft 526 kts 76°
2026-05-04 14:18 50.08098 -45.23580 30927 ft 527 kts 76°
2026-05-04 14:19 50.12478 -45.01749 30944 ft 529 kts 76°
2026-05-04 14:19 50.14655 -44.90798 30950 ft 528 kts 75°
2026-05-04 14:20 50.16830 -44.79828 30950 ft 528 kts 76°
2026-05-04 14:20 50.18970 -44.68959 30966 ft 528 kts 75°
2026-05-04 14:21 50.22179 -44.52506 30964 ft 528 kts 75°
2026-05-04 14:21 50.24306 -44.41530 30980 ft 528 kts 75°
2026-05-04 14:22 50.26424 -44.30534 31000 ft 529 kts 75°
2026-05-04 14:22 50.28534 -44.19519 30991 ft 529 kts 75°
2026-05-04 14:23 50.31691 -44.02937 31005 ft 530 kts 75°
2026-05-04 14:24 50.33769 -43.91939 31019 ft 530 kts 75°
2026-05-04 14:24 50.35848 -43.80861 31016 ft 529 kts 75°
2026-05-04 14:25 50.37915 -43.69850 31017 ft 526 kts 75°
2026-05-04 14:25 50.40967 -43.53395 31045 ft 526 kts 75°
2026-05-04 14:26 50.42984 -43.42309 31057 ft 530 kts 74°
2026-05-04 14:26 50.45025 -43.31142 31072 ft 533 kts 74°
2026-05-04 14:27 50.47054 -43.20007 31081 ft 535 kts 73°
2026-05-04 14:27 50.49089 -43.08752 31073 ft 535 kts 74°
2026-05-04 14:28 50.51105 -42.97508 31075 ft 534 kts 74°
2026-05-04 14:28 50.53103 -42.86285 31078 ft 532 kts 74°
2026-05-04 14:29 50.57041 -42.64006 31095 ft 529 kts 74°
2026-05-04 14:30 50.58994 -42.52847 31109 ft 528 kts 74°
2026-05-04 14:31 50.61899 -42.36127 31117 ft 528 kts 73°
2026-05-04 14:32 50.65745 -42.13730 31125 ft 529 kts 74°
2026-05-04 14:32 50.67651 -42.02509 31138 ft 529 kts 74°
2026-05-04 14:33 50.69550 -41.91279 31140 ft 530 kts 74°
2026-05-04 14:33 50.71393 -41.80111 31157 ft 531 kts 72°
2026-05-04 14:34 50.73384 -41.68920 31159 ft 529 kts 74°
2026-05-04 14:34 50.75248 -41.57731 31170 ft 528 kts 75°
2026-05-04 14:35 50.77029 -41.46443 31183 ft 531 kts 75°
2026-05-04 14:35 50.78897 -41.35222 31165 ft 531 kts 75°
2026-05-04 14:36 50.80523 -41.23831 31184 ft 531 kts 74°
2026-05-04 14:36 50.82388 -41.12527 31193 ft 531 kts 73°
2026-05-04 14:37 50.84317 -41.01196 31189 ft 533 kts 74°
2026-05-04 14:37 50.86151 -40.89814 31204 ft 534 kts 74°
2026-05-04 14:38 50.87939 -40.78462 31195 ft 535 kts 74°
2026-05-04 14:38 50.89729 -40.67030 31202 ft 533 kts 74°
2026-05-04 14:39 50.91509 -40.55609 31211 ft 534 kts 75°
2026-05-04 14:39 50.93273 -40.44178 31226 ft 534 kts 74°
2026-05-04 14:40 50.95911 -40.27040 31230 ft 535 kts 74°
2026-05-04 14:40 50.97658 -40.15538 31239 ft 536 kts 75°
2026-05-04 14:41 50.99397 -40.04014 31231 ft 536 kts 74°
2026-05-04 14:42 51.04448 -39.81862 31258 ft 531 kts 64°
2026-05-04 14:42 51.07241 -39.71016 31266 ft 535 kts 64°
2026-05-04 14:43 51.10018 -39.60017 31251 ft 536 kts 65°
2026-05-04 14:43 51.12765 -39.48961 31281 ft 537 kts 64°
2026-05-04 14:44 51.15497 -39.37892 31269 ft 536 kts 64°
2026-05-04 14:44 51.18182 -39.26829 31275 ft 534 kts 64°
2026-05-04 14:45 51.20858 -39.15873 31276 ft 534 kts 64°
2026-05-04 14:45 51.23552 -39.04837 31297 ft 534 kts 64°
2026-05-04 14:46 51.26235 -38.93774 31285 ft 535 kts 64°
2026-05-04 14:46 51.28900 -38.82677 31278 ft 534 kts 64°
2026-05-04 14:47 51.31555 -38.71562 31300 ft 534 kts 64°
2026-05-04 14:47 51.34205 -38.60454 31309 ft 535 kts 64°
2026-05-04 14:48 51.36845 -38.49335 31306 ft 534 kts 64°
2026-05-04 14:48 51.39437 -38.38282 31311 ft 533 kts 64°
2026-05-04 14:49 51.42048 -38.27167 31302 ft 531 kts 64°
2026-05-04 14:49 51.44203 -38.17954 31334 ft 532 kts 63°
2026-05-04 14:50 51.46784 -38.06825 31323 ft 533 kts 63°
2026-05-04 14:50 51.49359 -37.95656 31326 ft 535 kts 64°
2026-05-04 14:51 51.51865 -37.84381 31327 ft 534 kts 64°
2026-05-04 14:51 51.54449 -37.73212 31348 ft 532 kts 62°
2026-05-04 14:52 51.57024 -37.62081 31342 ft 530 kts 62°
2026-05-04 14:52 51.59561 -37.50947 31332 ft 529 kts 63°
2026-05-04 14:53 51.62051 -37.39854 31343 ft 530 kts 63°
2026-05-04 14:53 51.64562 -37.28677 31385 ft 532 kts 62°
2026-05-04 14:54 51.67036 -37.17474 31347 ft 529 kts 63°
2026-05-04 14:54 51.69507 -37.06308 31346 ft 528 kts 63°
2026-05-04 14:55 51.71967 -36.95130 31358 ft 529 kts 63°
2026-05-04 14:55 51.74417 -36.83930 31355 ft 529 kts 63°
2026-05-04 14:56 51.76851 -36.72781 31359 ft 530 kts 63°
2026-05-04 14:56 51.79292 -36.61527 31361 ft 531 kts 63°
2026-05-04 14:57 51.81725 -36.50245 31363 ft 532 kts 63°
2026-05-04 14:57 51.84145 -36.38934 31393 ft 533 kts 63°
2026-05-04 14:58 51.86557 -36.27603 31369 ft 532 kts 63°
2026-05-04 14:58 51.88939 -36.16358 31366 ft 530 kts 63°
2026-05-04 14:59 51.91316 -36.05069 31373 ft 529 kts 63°
2026-05-04 15:00 51.94861 -35.88134 31342 ft 528 kts 64°
2026-05-04 15:00 51.97198 -35.76880 31383 ft 526 kts 65°
2026-05-04 15:01 52.00661 -35.60089 31387 ft 525 kts 65°
2026-05-04 15:01 52.02970 -35.48822 31423 ft 524 kts 67°
2026-05-04 15:02 52.05260 -35.37583 31388 ft 523 kts 68°
2026-05-04 15:02 52.07514 -35.26448 31384 ft 521 kts 68°
2026-05-04 15:03 52.09767 -35.15267 31388 ft 520 kts 68°
2026-05-04 15:03 52.12011 -35.04077 31414 ft 519 kts 68°
2026-05-04 15:04 52.14237 -34.92899 31391 ft 517 kts 70°
2026-05-04 15:04 52.16434 -34.81772 31389 ft 515 kts 70°
2026-05-04 15:05 52.18606 -34.70732 31393 ft 514 kts 70°
2026-05-04 15:05 52.20781 -34.59617 31393 ft 514 kts 70°
2026-05-04 15:06 52.22943 -34.48503 31399 ft 515 kts 71°
2026-05-04 15:07 52.26169 -34.31797 31402 ft 515 kts 72°
2026-05-04 15:07 52.28310 -34.20642 31398 ft 515 kts 72°
2026-05-04 15:08 52.30442 -34.09460 31407 ft 516 kts 72°
2026-05-04 15:08 52.32553 -33.98322 31408 ft 516 kts 73°
2026-05-04 15:09 52.34665 -33.87110 31408 ft 516 kts 73°
2026-05-04 15:09 52.36769 -33.75859 31416 ft 516 kts 73°
2026-05-04 15:10 52.39896 -33.59034 31416 ft 516 kts 73°
2026-05-04 15:11 52.43009 -33.42132 31411 ft 517 kts 73°
2026-05-04 15:11 52.45058 -33.30915 31411 ft 517 kts 73°
2026-05-04 15:12 52.47112 -33.19600 31411 ft 517 kts 73°
2026-05-04 15:12 52.49153 -33.08295 31421 ft 517 kts 74°
2026-05-04 15:13 52.51183 -32.96968 31423 ft 517 kts 74°
2026-05-04 15:13 52.53203 -32.85628 31412 ft 517 kts 74°
2026-05-04 15:14 52.55197 -32.74362 31411 ft 516 kts 74°
2026-05-04 15:14 52.57195 -32.63030 31416 ft 516 kts 74°
2026-05-04 15:15 52.59180 -32.51694 31411 ft 516 kts 74°
2026-05-04 15:15 52.61161 -32.40324 31413 ft 516 kts 75°
2026-05-04 15:16 52.64099 -32.23227 31414 ft 518 kts 75°
2026-05-04 15:17 52.67021 -32.06197 31410 ft 516 kts 75°
2026-05-04 15:17 52.69899 -31.89105 31404 ft 515 kts 75°
2026-05-04 15:18 52.71807 -31.77714 31407 ft 514 kts 75°
2026-05-04 15:19 52.74647 -31.60628 31420 ft 515 kts 75°
2026-05-04 15:19 52.77456 -31.43606 31411 ft 514 kts 75°
2026-05-04 15:20 52.79330 -31.32162 31414 ft 516 kts 75°
2026-05-04 15:20 52.81194 -31.20742 31402 ft 515 kts 75°
2026-05-04 15:21 52.82982 -31.09245 31432 ft 514 kts 76°
2026-05-04 15:22 52.85667 -30.92195 31428 ft 512 kts 77°
2026-05-04 15:22 52.88396 -30.75045 31414 ft 515 kts 75°
2026-05-04 15:23 52.90266 -30.63553 31417 ft 516 kts 75°
2026-05-04 15:23 52.92064 -30.52009 31402 ft 517 kts 76°
2026-05-04 15:24 52.95614 -30.28948 31422 ft 516 kts 76°
2026-05-04 15:25 52.97370 -30.17403 31414 ft 516 kts 76°
2026-05-04 15:26 52.99991 -30.00062 31408 ft 516 kts 76°
2026-05-04 15:26 53.02514 -29.82661 31408 ft 516 kts 77°
2026-05-04 15:27 53.04962 -29.65317 31420 ft 515 kts 77°
2026-05-04 15:28 53.07414 -29.47926 31416 ft 515 kts 77°
2026-05-04 15:29 53.09847 -29.30486 31416 ft 515 kts 77°
2026-05-04 15:30 53.15403 -28.89805 31417 ft 516 kts 77°
2026-05-04 15:31 53.17744 -28.72308 31405 ft 515 kts 77°
2026-05-04 15:32 53.21593 -28.43095 31401 ft 515 kts 77°
2026-05-04 15:34 53.25360 -28.13907 31402 ft 515 kts 78°
2026-05-04 15:34 53.27592 -27.96341 31403 ft 515 kts 78°
2026-05-04 15:35 53.29786 -27.78844 31394 ft 515 kts 78°
2026-05-04 15:36 53.31963 -27.61243 31387 ft 515 kts 78°
2026-05-04 15:36 53.33398 -27.49518 31391 ft 514 kts 78°
2026-05-04 15:37 53.34821 -27.37786 31398 ft 514 kts 78°
2026-05-04 15:37 53.36227 -27.26119 31397 ft 514 kts 78°
2026-05-04 15:38 53.37626 -27.14382 31388 ft 513 kts 78°
2026-05-04 15:38 53.39012 -27.02649 31390 ft 514 kts 78°
2026-05-04 15:39 53.40389 -26.90902 31397 ft 514 kts 78°
2026-05-04 15:40 53.42206 -26.75225 31399 ft 514 kts 78°
2026-05-04 15:40 53.43555 -26.63459 31403 ft 514 kts 79°
2026-05-04 15:41 53.44894 -26.51673 31391 ft 514 kts 79°
2026-05-04 15:41 53.46220 -26.39896 31392 ft 513 kts 79°
2026-05-04 15:42 53.47536 -26.28091 31378 ft 513 kts 79°
2026-05-04 15:42 53.48829 -26.16377 31386 ft 513 kts 79°
2026-05-04 15:43 53.50118 -26.04595 31385 ft 513 kts 79°
2026-05-04 15:43 53.51399 -25.92774 31388 ft 513 kts 79°
2026-05-04 15:44 53.52666 -25.80955 31376 ft 514 kts 79°
2026-05-04 15:44 53.53923 -25.69128 31386 ft 513 kts 79°
2026-05-04 15:45 53.55159 -25.57384 31379 ft 513 kts 79°
2026-05-04 15:45 53.56391 -25.45565 31366 ft 513 kts 79°
2026-05-04 15:46 53.57610 -25.33740 31366 ft 512 kts 79°
2026-05-04 15:46 53.58816 -25.21919 31370 ft 512 kts 80°
2026-05-04 15:47 53.60013 -25.10076 31377 ft 513 kts 80°
2026-05-04 15:47 53.61192 -24.98305 31381 ft 513 kts 80°
2026-05-04 15:48 53.62366 -24.86446 31368 ft 513 kts 80°
2026-05-04 15:48 53.64104 -24.68664 31363 ft 513 kts 80°
2026-05-04 15:49 53.65242 -24.56791 31366 ft 513 kts 80°
2026-05-04 15:49 53.66373 -24.44915 31367 ft 513 kts 80°
2026-05-04 15:50 53.67500 -24.33007 31358 ft 513 kts 80°
2026-05-04 15:50 53.68606 -24.21133 31362 ft 512 kts 80°
2026-05-04 15:51 53.69703 -24.09256 31369 ft 512 kts 80°
2026-05-04 15:51 53.70777 -23.97450 31351 ft 511 kts 80°
2026-05-04 15:52 53.71845 -23.85584 31351 ft 510 kts 80°
2026-05-04 15:52 53.72903 -23.73724 31345 ft 510 kts 80°
2026-05-04 15:53 53.73949 -23.61860 31348 ft 510 kts 80°
2026-05-04 15:53 53.74983 -23.49979 31352 ft 511 kts 80°
2026-05-04 15:54 53.76003 -23.38082 31343 ft 511 kts 80°
2026-05-04 15:54 53.77009 -23.26253 31340 ft 511 kts 81°
2026-05-04 15:55 53.78010 -23.14341 31335 ft 511 kts 81°
2026-05-04 15:55 53.78996 -23.02445 31345 ft 512 kts 81°
2026-05-04 15:56 53.79974 -22.90501 31331 ft 512 kts 81°
2026-05-04 15:56 53.80940 -22.78550 31332 ft 512 kts 81°
2026-05-04 15:57 53.81888 -22.66678 31329 ft 512 kts 81°
2026-05-04 15:57 53.82829 -22.54734 31328 ft 512 kts 81°
2026-05-04 15:58 53.83758 -22.42770 31328 ft 512 kts 81°
2026-05-04 15:58 53.84675 -22.30828 31320 ft 511 kts 81°
2026-05-04 15:59 53.85577 -22.18909 31316 ft 509 kts 81°
2026-05-04 15:59 53.86463 -22.07063 31314 ft 509 kts 81°
2026-05-04 16:00 53.87341 -21.95154 31318 ft 509 kts 81°
2026-05-04 16:00 53.88207 -21.83230 31317 ft 509 kts 81°
2026-05-04 16:01 53.89062 -21.71296 31310 ft 510 kts 81°
2026-05-04 16:01 53.89905 -21.59356 31310 ft 510 kts 81°
2026-05-04 16:02 53.90732 -21.47461 31314 ft 511 kts 81°
2026-05-04 16:03 53.91959 -21.29489 31295 ft 510 kts 81°
2026-05-04 16:03 53.92761 -21.17538 31301 ft 509 kts 81°
2026-05-04 16:04 53.93544 -21.05683 31303 ft 508 kts 81°
2026-05-04 16:04 53.94702 -20.87803 31307 ft 508 kts 82°
2026-05-04 16:05 53.95459 -20.75889 31293 ft 507 kts 82°
2026-05-04 16:06 53.96571 -20.58011 31300 ft 507 kts 82°
2026-05-04 16:07 53.98016 -20.34148 31292 ft 508 kts 83°
2026-05-04 16:08 53.99411 -20.10306 31278 ft 509 kts 84°
2026-05-04 16:09 54.00439 -19.80280 31282 ft 509 kts 88°
2026-05-04 16:10 54.00819 -19.56281 31263 ft 509 kts 88°
2026-05-04 16:11 54.01212 -19.32260 31263 ft 508 kts 88°
2026-05-04 16:12 54.01698 -18.96289 31239 ft 507 kts 88°
2026-05-04 16:13 54.01966 -18.72316 31262 ft 507 kts 88°
2026-05-04 16:14 54.02187 -18.48316 31243 ft 507 kts 88°
2026-05-04 16:16 54.02390 -18.18303 31243 ft 508 kts 88°
2026-05-04 16:17 54.02527 -17.88326 31230 ft 509 kts 89°
2026-05-04 16:18 54.02578 -17.64231 31232 ft 508 kts 89°
2026-05-04 16:19 54.02575 -17.34194 31222 ft 509 kts 90°
2026-05-04 16:20 54.02499 -17.04098 31211 ft 510 kts 90°
2026-05-04 16:22 54.02347 -16.73872 31207 ft 511 kts 91°
2026-05-04 16:23 54.02064 -16.37662 31197 ft 511 kts 91°
2026-05-04 16:25 54.01672 -16.01480 31197 ft 511 kts 91°
2026-05-04 16:26 54.01077 -15.59184 31187 ft 511 kts 92°
2026-05-04 16:28 54.00563 -15.29024 31183 ft 511 kts 92°
2026-05-04 16:29 53.99946 -14.86652 31174 ft 512 kts 90°
2026-05-04 16:31 54.00103 -14.56450 31170 ft 512 kts 90°
2026-05-04 16:32 54.00069 -14.22205 31159 ft 511 kts 91°
2026-05-04 16:33 53.98799 -13.98324 31162 ft 507 kts 111°
2026-05-04 16:34 53.95623 -13.87795 31168 ft 503 kts 125°
2026-05-04 16:34 53.93713 -13.82834 31156 ft 503 kts 125°
2026-05-04 16:35 53.82297 -13.52863 31156 ft 504 kts 124°
2026-05-04 16:36 53.76639 -13.37927 31158 ft 504 kts 124°
2026-05-04 16:37 53.70944 -13.22999 31156 ft 503 kts 124°
2026-05-04 16:38 53.63342 -13.03217 31159 ft 502 kts 124°
2026-05-04 16:39 53.53825 -12.78661 31155 ft 502 kts 123°
2026-05-04 16:40 53.46162 -12.59060 31158 ft 502 kts 124°
2026-05-04 16:41 53.36527 -12.34641 31152 ft 502 kts 123°
2026-05-04 16:43 53.26885 -12.10437 31148 ft 500 kts 123°
2026-05-04 16:43 53.21075 -11.95963 31147 ft 500 kts 124°
2026-05-04 16:45 53.09432 -11.67200 31143 ft 498 kts 123°
2026-05-04 16:46 52.99701 -11.43409 31144 ft 497 kts 123°
2026-05-04 16:47 52.91885 -11.24466 31143 ft 498 kts 123°
2026-05-04 16:48 52.84058 -11.05634 31142 ft 497 kts 123°
2026-05-04 16:49 52.76194 -10.86848 31137 ft 496 kts 123°
2026-05-04 16:50 52.68332 -10.68207 31129 ft 494 kts 123°
2026-05-04 16:51 52.62433 -10.54306 31128 ft 493 kts 123°
2026-05-04 16:52 52.54564 -10.35883 31136 ft 493 kts 123°
2026-05-04 16:53 52.48633 -10.22089 31123 ft 492 kts 123°
2026-05-04 16:54 52.40721 -10.03795 31126 ft 491 kts 123°
2026-05-04 16:55 52.28852 -9.76600 31125 ft 488 kts 122°
2026-05-04 16:56 52.18975 -9.54172 31127 ft 486 kts 122°
2026-05-04 16:57 52.12896 -9.40907 31145 ft 487 kts 123°
2026-05-04 16:58 52.04710 -9.23506 31093 ft 484 kts 123°
2026-05-04 17:00 51.92483 -8.97553 31093 ft 482 kts 122°
2026-05-04 17:01 51.82270 -8.76071 31102 ft 481 kts 122°
2026-05-04 17:02 51.74111 -8.59036 31078 ft 479 kts 123°
2026-05-04 17:03 51.67989 -8.46334 31073 ft 477 kts 122°
2026-05-04 17:03 51.61896 -8.33753 31070 ft 476 kts 122°
2026-05-04 17:04 51.53727 -8.16977 31083 ft 476 kts 122°
2026-05-04 17:05 51.45546 -8.00276 31064 ft 475 kts 122°
2026-05-04 17:06 51.39440 -7.87887 31061 ft 473 kts 122°
2026-05-04 17:07 51.33997 -7.76895 31054 ft 473 kts 122°
2026-05-04 17:07 51.29201 -7.67238 31061 ft 474 kts 123°
2026-05-04 17:08 51.22906 -7.55026 31048 ft 478 kts 130°
2026-05-04 17:09 51.18045 -7.47734 31049 ft 480 kts 132°
2026-05-04 17:09 51.13150 -7.40494 31043 ft 480 kts 132°
2026-05-04 17:10 51.00956 -7.22349 31047 ft 482 kts 133°
2026-05-04 17:11 50.96062 -7.15082 31038 ft 482 kts 133°
2026-05-04 17:12 50.88704 -7.04200 31044 ft 481 kts 134°
2026-05-04 17:13 50.76474 -6.86228 31031 ft 480 kts 134°
2026-05-04 17:14 50.66656 -6.71897 31038 ft 480 kts 135°
2026-05-04 17:15 50.59316 -6.61236 31021 ft 480 kts 135°
2026-05-04 17:16 50.49507 -6.47067 31018 ft 479 kts 136°
2026-05-04 17:17 50.39698 -6.32978 31013 ft 476 kts 136°
2026-05-04 17:18 50.29919 -6.19017 31013 ft 474 kts 136°
2026-05-04 17:19 50.20150 -6.05152 31015 ft 474 kts 137°
2026-05-04 17:20 50.10406 -5.91396 31018 ft 473 kts 137°
2026-05-04 17:20 50.03068 -5.81089 31031 ft 473 kts 137°
2026-05-04 17:21 49.93316 -5.67467 31016 ft 471 kts 137°
2026-05-04 17:22 49.89266 -5.61831 31003 ft 470 kts 138°
2026-05-04 17:23 49.79519 -5.48319 31001 ft 469 kts 138°
2026-05-04 17:24 49.72212 -5.38237 31003 ft 468 kts 139°
2026-05-04 17:25 49.62518 -5.24930 31005 ft 467 kts 139°
2026-05-04 17:26 49.52787 -5.11638 31000 ft 467 kts 139°
2026-05-04 17:27 49.39790 -4.96836 31005 ft 467 kts 147°
2026-05-04 17:28 49.28917 -4.85820 31001 ft 468 kts 146°
2026-05-04 17:29 49.12655 -4.69351 30994 ft 469 kts 147°
2026-05-04 17:31 48.99043 -4.55676 31004 ft 468 kts 147°
2026-05-04 17:32 48.85432 -4.42094 30993 ft 469 kts 147°
2026-05-04 17:33 48.74526 -4.31267 30988 ft 465 kts 147°
2026-05-04 17:34 48.63757 -4.20640 30993 ft 461 kts 147°
2026-05-04 17:35 48.50310 -4.07444 30993 ft 462 kts 147°
2026-05-04 17:36 48.44911 -4.02167 30996 ft 462 kts 147°
2026-05-04 17:36 48.39508 -3.96905 30991 ft 463 kts 147°
2026-05-04 17:37 48.34124 -3.91671 30981 ft 464 kts 147°
2026-05-04 17:37 48.28688 -3.86400 30982 ft 465 kts 147°
2026-05-04 17:38 48.23251 -3.81142 30988 ft 464 kts 147°
2026-05-04 17:38 48.17830 -3.75911 30976 ft 463 kts 147°
2026-05-04 17:39 48.09710 -3.68100 30966 ft 461 kts 147°
2026-05-04 17:39 48.04586 -3.62375 30965 ft 461 kts 134°
2026-05-04 17:40 48.00765 -3.54675 30964 ft 464 kts 118°
2026-05-04 17:40 47.98098 -3.45870 30965 ft 466 kts 115°
2026-05-04 17:41 47.95468 -3.37015 30955 ft 467 kts 116°
2026-05-04 17:41 47.92811 -3.28241 30968 ft 467 kts 116°
2026-05-04 17:42 47.90108 -3.19425 30969 ft 468 kts 116°
2026-05-04 17:42 47.87393 -3.10609 30975 ft 467 kts 117°
2026-05-04 17:43 47.84683 -3.01841 30970 ft 466 kts 117°
2026-05-04 17:43 47.81962 -2.93078 30956 ft 466 kts 117°
2026-05-04 17:44 47.79239 -2.84323 30977 ft 466 kts 117°
2026-05-04 17:44 47.76528 -2.75639 30962 ft 466 kts 117°
2026-05-04 17:45 47.73789 -2.66893 30968 ft 466 kts 117°
2026-05-04 17:45 47.71043 -2.58150 30968 ft 466 kts 118°
2026-05-04 17:46 47.68215 -2.49496 30954 ft 464 kts 123°
2026-05-04 17:46 47.64711 -2.41551 30968 ft 458 kts 128°
2026-05-04 17:47 47.61127 -2.33748 30965 ft 456 kts 128°
2026-05-04 17:47 47.57579 -2.25972 30970 ft 455 kts 127°
2026-05-04 17:48 47.54070 -2.18265 30967 ft 454 kts 127°
2026-05-04 17:48 47.50525 -2.10492 30967 ft 455 kts 127°
2026-05-04 17:49 47.46980 -2.02738 30960 ft 454 kts 128°
2026-05-04 17:49 47.43434 -1.95008 30972 ft 453 kts 128°
2026-05-04 17:50 47.39887 -1.87299 30944 ft 453 kts 128°
2026-05-04 17:50 47.36341 -1.79609 30942 ft 453 kts 128°
2026-05-04 17:51 47.32790 -1.71936 30959 ft 453 kts 128°
2026-05-04 17:51 47.29229 -1.64267 30904 ft 454 kts 129°
2026-05-04 17:52 47.25661 -1.56589 30931 ft 454 kts 129°
2026-05-04 17:52 47.22081 -1.48921 30941 ft 455 kts 129°
2026-05-04 17:53 47.18508 -1.41292 30943 ft 456 kts 129°
2026-05-04 17:53 47.14908 -1.33616 30948 ft 455 kts 129°
2026-05-04 17:54 47.11305 -1.25947 30948 ft 455 kts 129°
2026-05-04 17:54 47.07699 -1.18299 30951 ft 454 kts 129°
2026-05-04 17:55 47.04118 -1.10735 30958 ft 454 kts 129°
2026-05-04 17:55 47.00515 -1.03138 30965 ft 454 kts 129°
2026-05-04 17:56 46.96894 -0.95523 30958 ft 454 kts 129°
2026-05-04 17:56 46.93271 -0.87929 30957 ft 454 kts 129°
2026-05-04 17:57 46.89673 -0.80399 30923 ft 454 kts 130°
2026-05-04 17:57 46.86050 -0.72845 30951 ft 453 kts 130°
2026-05-04 17:58 46.82434 -0.65323 30957 ft 452 kts 130°
2026-05-04 17:58 46.78805 -0.57796 30953 ft 452 kts 130°
2026-05-04 17:59 46.75178 -0.50291 30954 ft 452 kts 130°
2026-05-04 18:00 46.69729 -0.39051 30952 ft 452 kts 130°
2026-05-04 18:00 46.66119 -0.31624 30957 ft 452 kts 130°
2026-05-04 18:01 46.62493 -0.24067 30947 ft 454 kts 127°
2026-05-04 18:01 46.59286 -0.16113 30957 ft 456 kts 125°
2026-05-04 18:02 46.54527 -0.04210 30951 ft 456 kts 125°
2026-05-04 18:02 46.51322 0.03747 30931 ft 456 kts 125°
2026-05-04 18:03 46.48099 0.11705 30953 ft 457 kts 125°
2026-05-04 18:03 46.44866 0.19673 30955 ft 459 kts 125°
2026-05-04 18:04 46.41623 0.27647 30932 ft 459 kts 125°
2026-05-04 18:05 46.36771 0.39525 30933 ft 458 kts 126°
2026-05-04 18:05 46.33520 0.47460 30944 ft 459 kts 126°
2026-05-04 18:06 46.28608 0.59404 30940 ft 461 kts 126°
2026-05-04 18:06 46.25312 0.67373 30935 ft 462 kts 126°
2026-05-04 18:07 46.22040 0.75290 30927 ft 462 kts 126°
2026-05-04 18:07 46.18742 0.83234 30908 ft 462 kts 126°
2026-05-04 18:08 46.15426 0.91195 30921 ft 463 kts 126°
2026-05-04 18:08 46.12111 0.99128 30925 ft 464 kts 126°
2026-05-04 18:09 46.05419 1.15094 30911 ft 466 kts 126°
2026-05-04 18:10 46.02066 1.23056 30899 ft 466 kts 126°
2026-05-04 18:10 45.99261 1.29706 30913 ft 467 kts 126°
2026-05-04 18:11 45.95889 1.37687 30917 ft 468 kts 125°
2026-05-04 18:11 45.93079 1.46191 30918 ft 474 kts 116°
2026-05-04 18:12 45.90634 1.55040 30919 ft 474 kts 117°
2026-05-04 18:12 45.88191 1.63770 30906 ft 474 kts 116°
2026-05-04 18:13 45.85709 1.72537 30926 ft 475 kts 116°
2026-05-04 18:14 45.81942 1.85732 30924 ft 477 kts 117°
2026-05-04 18:14 45.79423 1.94510 30930 ft 477 kts 117°
2026-05-04 18:15 45.74370 2.12070 30923 ft 478 kts 116°
2026-05-04 18:16 45.71823 2.20870 30926 ft 479 kts 116°
2026-05-04 18:16 45.69268 2.29657 30927 ft 478 kts 117°
2026-05-04 18:17 45.65412 2.42900 30925 ft 481 kts 117°
2026-05-04 18:18 45.61518 2.56189 30946 ft 484 kts 117°
2026-05-04 18:18 45.58918 2.64998 30948 ft 485 kts 117°
2026-05-04 18:19 45.54987 2.78266 30934 ft 484 kts 117°
2026-05-04 18:19 45.52342 2.87146 30933 ft 486 kts 117°
2026-05-04 18:20 45.49692 2.96031 30941 ft 488 kts 117°
2026-05-04 18:20 45.47019 3.04962 30943 ft 490 kts 117°
2026-05-04 18:21 45.44358 3.13834 30922 ft 490 kts 118°
2026-05-04 18:21 45.41670 3.22741 30933 ft 490 kts 118°
2026-05-04 18:22 45.38966 3.31674 30953 ft 491 kts 118°
2026-05-04 18:22 45.36253 3.40597 30961 ft 491 kts 118°
2026-05-04 18:23 45.33535 3.49540 30966 ft 493 kts 118°
2026-05-04 18:23 45.30802 3.58494 30957 ft 493 kts 119°
2026-05-04 18:24 45.28079 3.67370 30961 ft 491 kts 119°
2026-05-04 18:24 45.25423 3.76305 30966 ft 492 kts 115°
2026-05-04 18:25 45.23487 3.85688 30945 ft 495 kts 111°
2026-05-04 18:25 45.21630 3.95049 30987 ft 496 kts 112°
2026-05-04 18:26 45.19690 4.04529 30966 ft 498 kts 112°
2026-05-04 18:26 45.17748 4.13913 30999 ft 500 kts 112°
2026-05-04 18:27 45.15776 4.23401 30958 ft 501 kts 112°
2026-05-04 18:27 45.13811 4.32859 30997 ft 500 kts 112°
2026-05-04 18:28 45.11547 4.42093 30976 ft 492 kts 122°
2026-05-04 18:28 45.07997 4.50223 31020 ft 479 kts 134°
2026-05-04 18:29 45.03646 4.57332 31014 ft 477 kts 137°
2026-05-04 18:29 44.99270 4.64307 31009 ft 477 kts 136°
2026-05-04 18:30 44.92699 4.74939 30999 ft 479 kts 136°
2026-05-04 18:31 44.88319 4.82044 30980 ft 479 kts 136°
2026-05-04 18:31 44.83946 4.89114 30995 ft 478 kts 136°
2026-05-04 18:32 44.79561 4.96186 30969 ft 478 kts 136°
2026-05-04 18:32 44.75206 5.03185 30993 ft 479 kts 136°
2026-05-04 18:33 44.70808 5.10243 31002 ft 480 kts 136°
2026-05-04 18:33 44.66394 5.17308 30986 ft 481 kts 136°
2026-05-04 18:34 44.61987 5.24343 31011 ft 479 kts 136°
2026-05-04 18:34 44.57577 5.31371 31011 ft 480 kts 136°
2026-05-04 18:35 44.53147 5.38408 30994 ft 482 kts 136°
2026-05-04 18:35 44.48700 5.45455 31002 ft 483 kts 136°
2026-05-04 18:36 44.44259 5.52476 31005 ft 486 kts 136°
2026-05-04 18:36 44.39772 5.59556 31011 ft 487 kts 136°
2026-05-04 18:37 44.35598 5.67082 31021 ft 492 kts 128°
2026-05-04 18:37 44.31789 5.75041 31020 ft 491 kts 129°
2026-05-04 18:38 44.27979 5.82956 31024 ft 491 kts 129°
2026-05-04 18:38 44.24164 5.90800 31024 ft 492 kts 129°
2026-05-04 18:39 44.20304 5.98678 31033 ft 492 kts 130°
2026-05-04 18:39 44.16440 6.06561 31025 ft 493 kts 130°
2026-05-04 18:40 44.12567 6.14435 31019 ft 492 kts 130°
2026-05-04 18:40 44.08691 6.22302 31026 ft 493 kts 130°
2026-05-04 18:41 44.04800 6.30177 31003 ft 494 kts 130°
2026-05-04 18:41 44.00915 6.38031 31013 ft 490 kts 129°
2026-05-04 18:42 43.97037 6.45880 31057 ft 495 kts 130°
2026-05-04 18:42 43.93097 6.53775 31031 ft 498 kts 129°
2026-05-04 18:43 43.89172 6.61629 31051 ft 498 kts 130°
2026-05-04 18:43 43.85207 6.69492 31063 ft 497 kts 130°
2026-05-04 18:44 43.81252 6.77371 31046 ft 498 kts 130°
2026-05-04 18:44 43.77283 6.85238 31030 ft 499 kts 130°
2026-05-04 18:45 43.73309 6.93183 31044 ft 504 kts 130°
2026-05-04 18:45 43.69367 7.01127 31051 ft 506 kts 128°
2026-05-04 18:46 43.65552 7.09315 31058 ft 507 kts 128°
2026-05-04 18:46 43.61757 7.17533 31042 ft 505 kts 128°
2026-05-04 18:47 43.57957 7.25660 31034 ft 502 kts 128°
2026-05-04 18:47 43.54157 7.33707 31042 ft 501 kts 128°
2026-05-04 18:48 43.50337 7.41761 31038 ft 502 kts 128°
2026-05-04 18:48 43.46504 7.49825 31043 ft 503 kts 128°
2026-05-04 18:49 43.42668 7.57882 31040 ft 504 kts 128°
2026-05-04 18:49 43.38837 7.65903 31028 ft 505 kts 129°
2026-05-04 18:50 43.34961 7.74002 31040 ft 508 kts 129°
2026-05-04 18:50 43.31062 7.82121 31041 ft 509 kts 129°
2026-05-04 18:51 43.27141 7.90262 31019 ft 511 kts 129°
2026-05-04 18:51 43.23219 7.98392 31017 ft 510 kts 129°
2026-05-04 18:52 43.19320 8.06451 31033 ft 511 kts 129°
2026-05-04 18:52 43.15374 8.14576 31039 ft 512 kts 129°
2026-05-04 18:53 43.11417 8.22706 31019 ft 514 kts 130°
2026-05-04 18:53 43.07435 8.30865 31032 ft 515 kts 130°
2026-05-04 18:54 43.03440 8.39029 31029 ft 517 kts 130°
2026-05-04 18:54 42.99426 8.47208 31037 ft 519 kts 130°
2026-05-04 18:55 42.95391 8.55412 31033 ft 520 kts 130°
2026-05-04 18:55 42.89371 8.67654 31011 ft 520 kts 128°
2026-05-04 18:56 42.85832 8.76319 31016 ft 523 kts 123°
2026-05-04 18:56 42.82419 8.85071 31027 ft 523 kts 123°
2026-05-04 18:57 42.78963 8.93799 31027 ft 523 kts 124°
2026-05-04 18:57 42.76076 9.01020 31026 ft 523 kts 124°
2026-05-04 18:58 42.72030 9.11124 31022 ft 523 kts 123°
2026-05-04 18:58 42.68529 9.19828 31029 ft 524 kts 123°
2026-05-04 18:59 42.65612 9.27069 31039 ft 525 kts 123°
2026-05-04 18:59 42.62100 9.35777 31040 ft 526 kts 123°
2026-05-04 19:00 42.58935 9.44732 31048 ft 533 kts 109°
2026-05-04 19:00 42.58313 9.49726 31047 ft 539 kts 95°
2026-05-04 19:00 42.58442 9.54823 31049 ft 543 kts 82°
2026-05-04 19:01 42.60294 9.64793 31022 ft 545 kts 75°
2026-05-04 19:01 42.62121 9.74760 31058 ft 543 kts 77°
2026-05-04 19:02 42.63797 9.84679 31043 ft 542 kts 77°
2026-05-04 19:02 42.65495 9.94633 31064 ft 539 kts 77°
2026-05-04 19:03 42.67187 10.04562 31073 ft 540 kts 77°
2026-05-04 19:03 42.68868 10.14500 31075 ft 539 kts 77°
2026-05-04 19:04 42.70543 10.24450 30956 ft 540 kts 77°
2026-05-04 19:04 42.71369 10.29391 30730 ft 535 kts 77°
2026-05-04 19:04 42.72177 10.34337 30318 ft 535 kts 79°
2026-05-04 19:05 42.72713 10.39333 29852 ft 532 kts 84°
2026-05-04 19:05 42.72936 10.44331 29371 ft 528 kts 90°
2026-05-04 19:05 42.72792 10.49305 28906 ft 523 kts 95°
2026-05-04 19:05 42.72524 10.54171 28448 ft 519 kts 95°
2026-05-04 19:06 42.72301 10.59047 27979 ft 515 kts 94°
2026-05-04 19:06 42.71899 10.63847 27462 ft 507 kts 105°
2026-05-04 19:06 42.70641 10.68248 26984 ft 495 kts 124°
2026-05-04 19:06 42.68735 10.72070 26550 ft 483 kts 127°
2026-05-04 19:07 42.66870 10.75857 26073 ft 480 kts 126°
2026-05-04 19:07 42.65077 10.79666 25596 ft 477 kts 124°
2026-05-04 19:07 42.63347 10.83427 25132 ft 473 kts 124°
2026-05-04 19:07 42.61623 10.87206 24658 ft 470 kts 124°
2026-05-04 19:08 42.59904 10.90971 24183 ft 466 kts 124°
2026-05-04 19:08 42.58201 10.94689 23715 ft 462 kts 124°
2026-05-04 19:08 42.56505 10.98373 23227 ft 458 kts 124°
2026-05-04 19:08 42.54823 11.02021 22752 ft 455 kts 124°
2026-05-04 19:09 42.53151 11.05637 22288 ft 451 kts 124°
2026-05-04 19:09 42.51488 11.09230 21803 ft 448 kts 124°
2026-05-04 19:09 42.49836 11.12794 21326 ft 445 kts 124°
2026-05-04 19:09 42.48197 11.16329 20855 ft 442 kts 124°
2026-05-04 19:10 42.46566 11.19841 20382 ft 438 kts 124°
2026-05-04 19:10 42.44953 11.23325 19903 ft 432 kts 122°
2026-05-04 19:10 42.43729 11.27039 19388 ft 433 kts 104°
2026-05-04 19:10 42.43319 11.31055 19198 ft 435 kts 97°
2026-05-04 19:11 42.42964 11.35078 19115 ft 435 kts 98°
2026-05-04 19:11 42.42541 11.39117 19107 ft 430 kts 99°
2026-05-04 19:11 42.42091 11.43112 19100 ft 428 kts 100°
2026-05-04 19:11 42.41633 11.47106 19113 ft 430 kts 100°
2026-05-04 19:12 42.41167 11.51108 19116 ft 428 kts 102°
2026-05-04 19:12 42.38377 11.57974 19139 ft 421 kts 140°
2026-05-04 19:12 42.36022 11.60295 19118 ft 419 kts 155°
2026-05-04 19:13 42.33363 11.61724 19129 ft 416 kts 165°
2026-05-04 19:13 42.30594 11.62897 19118 ft 418 kts 165°
2026-05-04 19:13 42.27828 11.64127 19057 ft 418 kts 164°
2026-05-04 19:13 42.25068 11.65392 18680 ft 418 kts 164°
2026-05-04 19:14 42.22314 11.66595 18254 ft 413 kts 165°
2026-05-04 19:14 42.19581 11.67754 17748 ft 410 kts 165°
2026-05-04 19:14 42.16866 11.68908 17200 ft 407 kts 165°
2026-05-04 19:14 42.14179 11.70060 16645 ft 399 kts 165°
2026-05-04 19:15 42.11590 11.71223 16067 ft 386 kts 160°
2026-05-04 19:15 42.09354 11.73149 15464 ft 380 kts 137°
2026-05-04 19:15 42.07828 11.75972 14913 ft 370 kts 117°
2026-05-04 19:15 42.07065 11.79180 14367 ft 360 kts 101°
2026-05-04 19:16 42.06891 11.82468 13799 ft 347 kts 87°
2026-05-04 19:16 42.07430 11.85564 13222 ft 336 kts 61°
2026-05-04 19:16 42.08928 11.87866 12640 ft 322 kts 30°
2026-05-04 19:16 42.10977 11.88800 12077 ft 306 kts 358°
2026-05-04 19:17 42.12980 11.88185 11522 ft 293 kts 326°
2026-05-04 19:17 42.14485 11.86410 11020 ft 288 kts 313°
2026-05-04 19:17 42.16171 11.84936 10427 ft 296 kts 339°
2026-05-04 19:17 42.18200 11.84347 9914 ft 300 kts 350°
2026-05-04 19:18 42.20260 11.83829 9390 ft 303 kts 344°
2026-05-04 19:18 42.22318 11.83060 8861 ft 311 kts 342°
2026-05-04 19:18 42.24410 11.82187 8337 ft 317 kts 341°
2026-05-04 19:18 42.26505 11.81286 7802 ft 323 kts 341°
2026-05-04 19:19 42.28676 11.80660 7208 ft 317 kts
2026-05-04 19:19 42.30782 11.81291 6650 ft 307 kts 28°
2026-05-04 19:19 42.32442 11.82993 6245 ft 295 kts 50°
2026-05-04 19:19 42.33619 11.85188 5827 ft 283 kts 67°
2026-05-04 19:20 42.34324 11.87621 5458 ft 273 kts 75°
2026-05-04 19:20 42.34794 11.90053 5102 ft 262 kts 89°
2026-05-04 19:20 42.34470 11.92384 4750 ft 249 kts 121°
2026-05-04 19:20 42.33404 11.94204 4468 ft 249 kts 140°
2026-05-04 19:21 42.31979 11.95509 4268 ft 247 kts 158°
2026-05-04 19:21 42.30375 11.96257 4239 ft 238 kts 164°
2026-05-04 19:21 42.28842 11.96877 4221 ft 227 kts 164°
2026-05-04 19:21 42.27355 11.97474 4217 ft 213 kts 164°
2026-05-04 19:22 42.25960 11.98041 4242 ft 211 kts 164°
2026-05-04 19:22 42.24552 11.98623 4247 ft 212 kts 163°
2026-05-04 19:22 42.23143 11.99211 4248 ft 212 kts 163°
2026-05-04 19:22 42.21735 11.99806 4251 ft 212 kts 163°
2026-05-04 19:23 42.20320 12.00405 4242 ft 213 kts 163°
2026-05-04 19:23 42.18905 12.01008 4258 ft 214 kts 163°
2026-05-04 19:23 42.17481 12.01611 4249 ft 214 kts 163°
2026-05-04 19:23 42.16066 12.02217 4263 ft 213 kts 163°
2026-05-04 19:24 42.14653 12.02822 4272 ft 214 kts 163°
2026-05-04 19:24 42.13257 12.03419 4251 ft 207 kts 163°
2026-05-04 19:24 42.11937 12.04058 4177 ft 203 kts 150°
2026-05-04 19:24 42.10896 12.05357 3835 ft 206 kts 133°
2026-05-04 19:25 42.09954 12.06785 3720 ft 201 kts 135°
2026-05-04 19:25 42.08995 12.08181 3383 ft 205 kts 135°
2026-05-04 19:25 42.08018 12.09605 2980 ft 208 kts 135°
2026-05-04 19:25 42.07034 12.11041 2623 ft 209 kts 135°
2026-05-04 19:26 42.06074 12.12450 2521 ft 198 kts 134°
2026-05-04 19:26 42.05181 12.13762 2504 ft 182 kts 134°
2026-05-04 19:26 42.04332 12.14999 2499 ft 181 kts 134°
2026-05-04 19:26 42.03478 12.16249 2492 ft 180 kts 134°
2026-05-04 19:27 42.02648 12.17466 2493 ft 178 kts 134°
2026-05-04 19:27 42.01769 12.18580 2462 ft 169 kts 153°
2026-05-04 19:27 42.00688 12.19201 2523 ft 173 kts 158°
2026-05-04 19:27 41.99559 12.19814 2511 ft 174 kts 160°
2026-05-04 19:28 41.98441 12.20331 2516 ft 166 kts 162°
2026-05-04 19:28 41.97355 12.20804 2497 ft 161 kts 163°
2026-05-04 19:28 41.96307 12.21246 2455 ft 157 kts 163°
2026-05-04 19:28 41.95255 12.21687 2205 ft 158 kts 163°
2026-05-04 19:29 41.94215 12.22122 2005 ft 155 kts 163°
2026-05-04 19:29 41.93187 12.22557 1798 ft 156 kts 163°
2026-05-04 19:29 41.92156 12.22986 1594 ft 155 kts 163°
2026-05-04 19:29 41.91117 12.23420 1404 ft 157 kts 163°
2026-05-04 19:30 41.90079 12.23856 1185 ft 156 kts 163°
2026-05-04 19:30 41.89062 12.24286 957 ft 155 kts 162°
2026-05-04 19:30 41.88033 12.24726 749 ft 155 kts 162°
2026-05-04 19:30 41.87010 12.25163 580 ft 153 kts 163°
2026-05-04 19:31 41.85986 12.25573 390 ft 154 kts 163°
2026-05-04 19:31 41.84967 12.26001 165 ft 153 kts 162°
2026-05-04 19:31 41.83969 12.26420 28 ft 141 kts 162°
2026-05-04 19:31 41.83126 12.26771 19 ft 111 kts 163°
2026-05-04 19:32 41.82508 12.27026 18 ft 75 kts 162°
2026-05-04 19:32 41.82128 12.27189 17 ft 40 kts 162°
2026-05-04 19:32 41.81900 12.27284 19 ft 40 kts 162°
2026-05-04 19:32 41.81646 12.27391 24 ft 33 kts 163°
2026-05-04 19:33 41.81499 12.27421 20 ft 19 kts 186°
2026-05-04 19:33 41.81412 12.27384 20 ft 8 kts 213°
2026-05-04 19:33 41.81374 12.27329 21 ft 7 kts 238°
2026-05-04 19:33 41.81360 12.27298 20 ft 0 kts 236°
2026-05-04 19:34 41.81360 12.27297 20 ft 1 kts 236°
2026-05-04 19:34 41.81340 12.27268 21 ft 9 kts 223°
2026-05-04 19:35 41.81286 12.27234 20 ft 9 kts 189°
2026-05-04 19:35 41.81222 12.27245 20 ft 9 kts 166°
2026-05-04 19:35 41.81159 12.27269 20 ft 9 kts 163°
2026-05-04 19:35 41.81086 12.27300 20 ft 13 kts 162°
2026-05-04 19:36 41.80999 12.27337 20 ft 11 kts 164°
2026-05-04 19:36 41.80922 12.27349 21 ft 11 kts 181°
2026-05-04 19:36 41.80842 12.27337 21 ft 13 kts 189°
2026-05-04 19:36 41.80752 12.27317 20 ft 11 kts 192°
2026-05-04 19:37 41.80683 12.27267 20 ft 11 kts 224°
2026-05-04 19:37 41.80645 12.27178 21 ft 12 kts 247°
2026-05-04 19:37 41.80615 12.27071 22 ft 12 kts 250°
2026-05-04 19:37 41.80585 12.26963 22 ft 13 kts 249°
2026-05-04 19:38 41.80548 12.26833 20 ft 16 kts 249°
2026-05-04 19:38 41.80508 12.26689 20 ft 16 kts 250°
2026-05-04 19:38 41.80469 12.26544 20 ft 16 kts 250°
2026-05-04 19:38 41.80430 12.26402 21 ft 16 kts 249°
2026-05-04 19:39 41.80390 12.26258 20 ft 16 kts 250°
2026-05-04 19:39 41.80351 12.26114 22 ft 16 kts 249°
2026-05-04 19:39 41.80311 12.25970 22 ft 16 kts 250°
2026-05-04 19:39 41.80271 12.25827 22 ft 16 kts 250°
2026-05-04 19:40 41.80231 12.25682 20 ft 16 kts 250°
2026-05-04 19:40 41.80192 12.25539 20 ft 16 kts 249°
2026-05-04 19:40 41.80152 12.25395 21 ft 16 kts 249°
2026-05-04 19:40 41.80112 12.25251 22 ft 16 kts 252°
2026-05-04 19:41 41.80099 12.25100 20 ft 16 kts 275°
2026-05-04 19:41 41.80111 12.24948 20 ft 16 kts 273°
2026-05-04 19:41 41.80093 12.24821 20 ft 13 kts 252°
2026-05-04 19:41 41.80061 12.24705 20 ft 13 kts 249°
2026-05-04 19:42 41.80029 12.24588 20 ft 13 kts 250°
2026-05-04 19:42 41.79997 12.24470 21 ft 13 kts 250°
2026-05-04 19:42 41.79964 12.24354 21 ft 13 kts 249°
2026-05-04 19:42 41.79943 12.24290 20 ft 2 kts 236°
2026-05-04 19:43 41.79923 12.24274 22 ft 5 kts 197°
2026-05-04 19:43 41.79884 12.24278 20 ft 6 kts 166°
2026-05-04 19:43 41.79849 12.24301 20 ft 6 kts 147°
2026-05-04 19:43 41.79808 12.24341 22 ft 8 kts 147°
2026-05-04 19:44 41.79750 12.24378 20 ft 9 kts 158°
2026-05-04 19:44 41.79707 12.24395 22 ft 5 kts 176°
2026-05-04 19:44 41.79684 12.24379 20 ft 4 kts 225°
2026-05-04 19:44 41.79671 12.24351 20 ft 4 kts 240°
2026-05-04 19:45 41.79662 12.24328 21 ft 3 kts 244°
2026-05-04 19:45 41.79658 12.24317 20 ft 1 kts 245°
2026-05-04 19:45 41.79658 12.24316 20 ft 0 kts 245°